D15-fa-1 Helipad Oil, Netherlands

10:19 AM CET on February 22, 2017 (GMT +0100)
D15-fa-1 Sea

Weather History for EHDV - December, 2013

Change the Weather History Date:

Tuesday, December 3, 2013

  Actual Average Record
Temperature  
Mean Temperature 47 °F -  
Max Temperature 48 °F - - ()
Min Temperature 46 °F - - ()
Degree Days  
Heating Degree Days 18    
Moisture  
Dew Point 41 °F    
Average Humidity 76    
Maximum Humidity 87    
Minimum Humidity 58    
Precipitation  
Precipitation 0.00 in - - ()
Sea Level Pressure  
Sea Level Pressure 30.29 in    
Wind  
Wind Speed 16 mph ()    
Max Wind Speed 23 mph    
Max Gust Speed -    
Visibility 7.4 miles    
Events Rain    
T = Trace of Precipitation, MM = Missing Value Source: Averaged Metar Reports

Daily Weather History Graph

Daily Weather History Graph

Search for Another Location

Airport or City:

Trip Planner

Search our weather history database for the weather conditions in past years. The results will help you decide how hot, cold, wet, or windy it might be!

Date:

Astronomy

Dec. 03, 2013 Rise Set
Actual Time 8:48 AM CET 4:27 PM CET
Civil Twilight 8:05 AM CET 5:10 PM CET
Nautical Twilight 7:19 AM CET 5:56 PM CET
Astronomical Twilight 6:36 AM CET 6:39 PM CET
Moon 8:57 AM CET (12/3) 5:18 PM CET (12/3)
Length of Visible Light 9h 04m
Length of Day
7h 38m
New Moon, 0% of the Moon is Illuminated
Dec 3
New Moon
Dec 9
First Quarter
Dec 17
Full
Dec 25
Last Quarter
Jan 1
New

Hourly Weather History & Observations

Time (CET) Temp. Windchill Dew Point Humidity Pressure Visibility Wind Dir Wind Speed Gust Speed Precip Events Conditions
12:25 AM 48.2 °F - 39.2 °F 71% 30.42 in 6.2 mi WSW 16.1 mph - N/A   Mostly Cloudy
12:55 AM 48.2 °F - 39.2 °F 71% 30.42 in 6.2 mi WSW 17.3 mph - N/A   Overcast
1:00 AM 48 °F - 40 °F 66% 30.44 in 12 mi West 6.7 mph - -   Partly Cloudy
1:25 AM 46.4 °F 38.7 °F 39.2 °F 76% 30.42 in 6.2 mi West 20.7 mph - N/A   Mostly Cloudy
1:55 AM 46.4 °F 39.2 °F 39.2 °F 76% 30.42 in 6.2 mi West 18.4 mph - N/A   Mostly Cloudy
2:25 AM 46.4 °F 39.5 °F 39.2 °F 76% 30.39 in 6.2 mi West 17.3 mph - N/A   Mostly Cloudy
2:55 AM 46.4 °F 39.5 °F 39.2 °F 76% 30.39 in 6.2 mi WSW 17.3 mph - N/A   Overcast
3:25 AM 46.4 °F 38.7 °F 37.4 °F 71% 30.39 in 6.2 mi West 20.7 mph - N/A   Overcast
3:55 AM 46.4 °F 39.5 °F 37.4 °F 71% 30.36 in 6.2 mi West 17.3 mph - N/A   Overcast
4:00 AM 47 °F - 37 °F 58% 30.39 in 17 mi West 15.7 mph - -   Overcast
4:25 AM 46.4 °F 39.5 °F 37.4 °F 71% 30.36 in 6.2 mi West 17.3 mph - N/A   Overcast
4:55 AM 46.4 °F 39.0 °F 37.4 °F 71% 30.36 in 6.2 mi West 19.6 mph - N/A   Overcast
5:25 AM 46.4 °F 39.5 °F 37.4 °F 71% 30.36 in 6.2 mi WSW 17.3 mph - N/A   Scattered Clouds
5:55 AM 46.4 °F 39.8 °F 37.4 °F 71% 30.36 in 6.2 mi WSW 16.1 mph - N/A   Partly Cloudy
6:25 AM 46.4 °F 39.8 °F 37.4 °F 71% 30.36 in 6.2 mi West 16.1 mph - N/A   Scattered Clouds
6:55 AM 46.4 °F 40.4 °F 39.2 °F 76% 30.33 in 6.2 mi Variable 13.8 mph - N/A   Mostly Cloudy
7:00 AM 47 °F - 39 °F 65% 30.36 in 19 mi West 13.4 mph - -   Partly Cloudy
7:25 AM 46.4 °F 39.2 °F 37.4 °F 71% 30.33 in 6.2 mi West 18.4 mph - N/A   Mostly Cloudy
7:55 AM 46.4 °F 39.8 °F 39.2 °F 76% 30.33 in 6.2 mi WSW 16.1 mph - N/A   Scattered Clouds
8:25 AM 46.4 °F 39.8 °F 39.2 °F 76% 30.33 in 6.2 mi WSW 16.1 mph - N/A   Partly Cloudy
8:55 AM 48.2 °F - 39.2 °F 71% 30.33 in 6.2 mi WSW 17.3 mph - N/A   Unknown
9:25 AM 48.2 °F - 39.2 °F 71% 30.33 in 6.2 mi WSW 17.3 mph - N/A   Unknown
9:55 AM 48.2 °F - 39.2 °F 71% 30.33 in 6.2 mi WSW 17.3 mph - N/A   Unknown
10:00 AM 47 °F - 40 °F 68% 30.34 in 19 mi WSW 15.7 mph - -   Scattered Clouds
10:25 AM 48.2 °F - 39.2 °F 71% 30.33 in 6.2 mi WSW 17.3 mph - N/A   Partly Cloudy
10:55 AM 48.2 °F - 41.0 °F 76% 30.30 in 6.2 mi WSW 17.3 mph - N/A   Partly Cloudy
11:25 AM 48.2 °F - 41.0 °F 76% 30.30 in 6.2 mi WSW 19.6 mph - N/A   Scattered Clouds
11:55 AM 48.2 °F - 41.0 °F 76% 30.30 in 6.2 mi WSW 19.6 mph - N/A   Mostly Cloudy
12:25 PM 48.2 °F - 41.0 °F 76% 30.30 in 6.2 mi WSW 19.6 mph - N/A Rain Light Rain
12:55 PM 48.2 °F - 41.0 °F 76% 30.30 in 6.2 mi WSW 19.6 mph - N/A   Mostly Cloudy
1:00 PM 47 °F - 41 °F 72% 30.31 in 13 mi WSW 15.7 mph - - Rain Rain
1:25 PM 48.2 °F - 41.0 °F 76% 30.27 in 6.2 mi WSW 18.4 mph - N/A   Scattered Clouds
1:55 PM 48.2 °F - 41.0 °F 76% 30.27 in 6.2 mi WSW 19.6 mph - N/A   Scattered Clouds
2:25 PM 48.2 °F - 41.0 °F 76% 30.27 in 6.2 mi WSW 19.6 mph - N/A   Mostly Cloudy
2:55 PM 48.2 °F - 41.0 °F 76% 30.27 in 6.2 mi WSW 19.6 mph - N/A   Scattered Clouds
3:25 PM 48.2 °F - 42.8 °F 82% 30.24 in 6.2 mi WSW 19.6 mph - N/A   Scattered Clouds
3:55 PM 48.2 °F - 42.8 °F 82% 30.24 in 6.2 mi West 19.6 mph - N/A   Scattered Clouds
4:00 PM 48 °F - 42 °F 73% 30.26 in 17 mi West 15.7 mph - -   Scattered Clouds
4:25 PM 48.2 °F - 41.0 °F 76% 30.24 in 6.2 mi WSW 19.6 mph - N/A   Partly Cloudy
4:55 PM 48.2 °F - 41.0 °F 76% 30.24 in 6.2 mi WSW 18.4 mph - N/A   Partly Cloudy
5:25 PM 48.2 °F - 41.0 °F 76% 30.24 in 6.2 mi West 19.6 mph - N/A   Partly Cloudy
5:55 PM 48.2 °F - 41.0 °F 76% 30.24 in 6.2 mi West 20.7 mph - N/A   Scattered Clouds
6:25 PM 48.2 °F - 42.8 °F 82% 30.21 in 6.2 mi WSW 19.6 mph - N/A   Mostly Cloudy
6:55 PM 48.2 °F - 42.8 °F 82% 30.21 in 6.2 mi WSW 18.4 mph - N/A   Scattered Clouds
7:00 PM 48 °F - 42 °F 73% 30.24 in 13 mi WSW 15.7 mph - -   Partly Cloudy
7:25 PM 48.2 °F - 42.8 °F 82% 30.21 in 6.2 mi WSW 18.4 mph - N/A   Partly Cloudy
7:55 PM 48.2 °F - 42.8 °F 82% 30.21 in 6.2 mi WSW 17.3 mph - N/A   Partly Cloudy
8:25 PM 48.2 °F - 42.8 °F 82% 30.21 in 6.2 mi WSW 19.6 mph - N/A   Scattered Clouds
8:55 PM 48.2 °F - 42.8 °F 82% 30.18 in 6.2 mi WSW 19.6 mph - N/A   Scattered Clouds
9:25 PM 48.2 °F - 42.8 °F 82% 30.18 in 6.2 mi WSW 19.6 mph - N/A   Mostly Cloudy
9:55 PM 48.2 °F - 44.6 °F 87% 30.18 in 6.2 mi WSW 19.6 mph - N/A   Mostly Cloudy
10:00 PM 48 °F - 44 °F 79% 30.19 in 7 mi WSW 15.7 mph - -   Overcast
10:25 PM 48.2 °F - 42.8 °F 82% 30.18 in 6.2 mi WSW 20.7 mph - N/A   Overcast
10:55 PM 48.2 °F - 44.6 °F 87% 30.15 in 6.2 mi WSW 19.6 mph - N/A   Scattered Clouds
11:25 PM 48.2 °F - 44.6 °F 87% 30.15 in 6.2 mi WSW 21.9 mph - N/A   Scattered Clouds
11:55 PM 48.2 °F - 44.6 °F 87% 30.15 in 6.2 mi West 23.0 mph - N/A   Mostly Cloudy